Stations météo

réclame
Mon MeteoGroup
Semmerzake, Belgique (6428): Température de l'air & dewpoint: 12.02.2019 17:00:00 - 18.02.2019 17:00:00 (CET)Semmerzake, Belgique (6428): Vitesse du vent & gusts: 12.02.2019 17:00:00 - 18.02.2019 17:00:00 (CET)Semmerzake, Belgique (6428): Direction du vent: 12.02.2019 17:00:00 - 18.02.2019 17:00:00 (CET)Semmerzake, Belgique (6428): reduced air pressure: 12.02.2019 17:00:00 - 18.02.2019 17:00:00 (CET)Semmerzake, Belgique (6428): visibility: 12.02.2019 17:00:00 - 18.02.2019 17:00:00 (CET)
Date & Time tt [°C] td [°C] ff [km/h] ff [knt] fx [km/h] fx [knt] dd ppp [hPa] vv [km]
18.02.2019 17:00:00 13,0 5,3 7 4 22 12 SSW 1015,6 17
18.02.2019 16:00:00 13,9 5,2 11 6 - - SSW 1015,7 19
18.02.2019 15:00:00 13,2 5,2 11 6 18 10 S 1015,7 18
18.02.2019 14:00:00 12,8 4,2 11 6 22 12 SSW 1016,6 20
18.02.2019 13:00:00 11,8 3,4 11 6 - - SSW 1017,3 20
18.02.2019 12:00:00 10,9 2,8 11 6 22 12 S 1017,7 19
18.02.2019 11:00:00 10,1 2,6 11 6 18 10 S 1018,2 20
18.02.2019 10:00:00 7,9 1,2 11 6 - - S 1018,7 20
18.02.2019 09:00:00 6,3 1,1 7 4 11 6 S 1018,7 19
18.02.2019 08:00:00 5,8 0,5 7 4 11 6 S 1018,6 20
18.02.2019 07:00:00 5,8 0,5 7 4 - - S 1018,6 20
18.02.2019 06:00:00 6,3 0,5 7 4 14 8 S 1018,8 20
18.02.2019 05:00:00 6,0 1,0 7 4 14 8 S 1018,7 20
18.02.2019 04:00:00 6,5 1,3 11 6 - - S 1018,8 20
18.02.2019 03:00:00 6,9 1,4 14 8 22 12 S 1019,2 20
18.02.2019 02:00:00 8,0 1,7 14 8 22 12 S 1019,1 20
18.02.2019 01:00:00 8,1 1,9 14 8 - - S 1019,2 20
18.02.2019 00:00:00 8,6 2,2 14 8 18 10 SSW 1019,1 20
17.02.2019 23:00:00 7,9 2,7 11 6 14 8 S 1019,3 20
17.02.2019 22:00:00 8,9 3,1 11 6 - - SSW 1019,6 20
17.02.2019 21:00:00 9,6 3,6 14 8 22 12 S 1019,3 19
17.02.2019 20:00:00 9,5 3,7 11 6 22 12 S 1019,3 20
17.02.2019 19:00:00 10,9 3,2 14 8 - - S 1018,8 20
17.02.2019 18:00:00 11,5 3,1 14 8 22 12 S 1018,5 20
17.02.2019 17:00:00 13,0 3,5 14 8 29 16 SSW 1018,6 20
17.02.2019 16:00:00 14,1 3,1 22 12 - - S 1018,1 20
17.02.2019 15:00:00 14,2 2,9 25 14 36 19 S 1018,2 18
17.02.2019 14:00:00 13,7 2,8 22 12 32 18 S 1018,8 18
17.02.2019 13:00:00 13,7 3,4 22 12 - - S 1019,2 17
17.02.2019 12:00:00 12,3 2,7 14 8 29 16 S 1019,8 16
17.02.2019 11:00:00 10,3 3,1 18 10 22 12 S 1020,1 13
17.02.2019 10:00:00 8,0 1,9 14 8 - - S 1020,6 13
17.02.2019 09:00:00 6,0 1,0 11 6 18 10 S 1020,8 13
17.02.2019 08:00:00 5,6 0,8 11 6 18 10 SSE 1020,8 13
17.02.2019 07:00:00 5,0 1,5 7 4 - - SSE 1021,0 12
17.02.2019 06:00:00 5,3 2,0 11 6 18 10 SSE 1021,5 10
17.02.2019 05:00:00 5,6 2,0 11 6 14 8 SSE 1022,0 11
17.02.2019 04:00:00 6,0 2,1 7 4 - - SSE 1022,5 11
17.02.2019 03:00:00 5,8 2,1 11 6 14 8 SSE 1023,1 11
17.02.2019 02:00:00 6,2 2,1 7 4 14 8 SSE 1023,5 13
17.02.2019 01:00:00 5,9 2,4 14 8 - - S 1023,8 12
17.02.2019 00:00:00 6,1 2,7 11 6 14 8 S 1024,2 11
16.02.2019 23:00:00 6,9 3,1 4 2 7 4 N 1024,7 11
16.02.2019 22:00:00 7,4 3,8 4 2 - - N 1024,9 11
16.02.2019 21:00:00 8,2 4,4 7 4 11 6 S 1024,7 12
16.02.2019 20:00:00 8,6 4,4 7 4 11 6 S 1025,0 12
16.02.2019 19:00:00 9,6 4,5 7 4 - - S 1025,0 14
16.02.2019 18:00:00 11,0 5,1 7 4 11 6 S 1025,0 13
16.02.2019 17:00:00 12,3 5,9 7 4 18 10 SSW 1025,2 14
16.02.2019 16:00:00 13,3 5,6 11 6 - - SSW 1025,5 18
16.02.2019 15:00:00 13,4 6,7 7 4 22 12 SW 1025,7 19
16.02.2019 14:00:00 13,3 6,1 11 6 18 10 SW 1026,0 13
16.02.2019 13:00:00 11,7 5,4 11 6 - - SSW 1026,4 15
16.02.2019 12:00:00 10,1 3,6 11 6 22 12 SSW 1026,7 16
16.02.2019 11:00:00 7,9 2,9 14 8 18 10 SSW 1026,7 15
16.02.2019 10:00:00 6,6 2,3 11 6 - - SSW 1026,5 12
16.02.2019 09:00:00 5,1 1,8 14 8 18 10 SSW 1026,5 11
16.02.2019 08:00:00 4,6 1,5 14 8 22 12 S 1026,0 12
16.02.2019 07:00:00 5,1 1,7 18 10 - - S 1025,5 13
16.02.2019 06:00:00 5,2 1,9 14 8 22 12 S 1025,5 13
16.02.2019 05:00:00 5,4 2,0 14 8 22 12 S 1025,2 15
16.02.2019 04:00:00 6,3 2,2 14 8 - - SSW 1025,5 16
16.02.2019 03:00:00 6,5 2,1 14 8 22 12 S 1025,7 18
16.02.2019 02:00:00 6,4 2,2 11 6 22 12 SSW 1026,5 16
16.02.2019 01:00:00 7,7 2,4 14 8 - - SSW 1026,5 19
16.02.2019 00:00:00 7,9 2,3 18 10 25 14 S 1026,4 19
15.02.2019 23:00:00 8,1 2,1 14 8 22 12 S 1026,5 17
15.02.2019 22:00:00 7,6 1,8 14 8 - - S 1026,7 20
15.02.2019 21:00:00 9,1 2,2 14 8 18 10 S 1027,0 20
15.02.2019 20:00:00 10,4 0,6 7 4 11 6 S 1027,4 20
15.02.2019 19:00:00 11,9 1,0 11 6 - - S 1027,5 20
15.02.2019 18:00:00 12,7 2,4 11 6 14 8 S 1027,4 20
15.02.2019 17:00:00 14,8 3,1 11 6 18 10 S 1027,5 20
15.02.2019 16:00:00 15,6 3,8 11 6 - - S 1028,0 20
15.02.2019 15:00:00 15,3 2,8 11 6 22 12 S 1028,5 20
15.02.2019 14:00:00 14,5 2,7 11 6 22 12 SSW 1029,5 19
15.02.2019 13:00:00 13,2 1,6 14 8 - - S 1030,0 20
15.02.2019 12:00:00 11,6 1,1 7 4 18 10 SSW 1030,7 20
15.02.2019 11:00:00 10,3 1,1 4 2 11 6 N 1031,0 19
15.02.2019 10:00:00 7,8 0,4 7 4 - - SSE 1031,2 20
15.02.2019 09:00:00 5,9 -0,9 4 2 14 8 N 1031,2 19
15.02.2019 08:00:00 4,4 -1,2 11 6 18 10 S 1031,2 20
15.02.2019 07:00:00 4,0 -1,8 4 2 - - N 1031,0 20
15.02.2019 06:00:00 3,6 -1,5 7 4 11 6 SSE 1031,5 20
15.02.2019 05:00:00 4,0 -1,2 4 2 11 6 N 1031,4 17
15.02.2019 04:00:00 4,4 -1,1 4 2 - - N 1031,5 20
15.02.2019 03:00:00 - - - - - - - - -
15.02.2019 02:00:00 5,3 -0,6 4 2 7 4 N 1032,5 19
15.02.2019 01:00:00 5,0 0,0 4 2 - - N 1032,9 19
15.02.2019 00:00:00 6,2 0,1 4 2 7 4 N 1032,9 18
14.02.2019 23:00:00 7,3 0,4 7 4 11 6 SSE 1032,7 20
14.02.2019 22:00:00 7,2 -0,1 7 4 - - SE 1032,7 20
14.02.2019 21:00:00 7,7 -0,2 4 2 7 4 N 1032,7 17
14.02.2019 20:00:00 9,0 0,4 4 2 4 2 N 1032,9 18
14.02.2019 19:00:00 9,5 0,8 4 2 - - N 1033,0 19
14.02.2019 18:00:00 10,8 0,8 4 2 7 4 N 1033,0 20
14.02.2019 17:00:00 12,6 1,4 4 2 11 6 N 1033,4 15
14.02.2019 16:00:00 12,8 2,0 7 4 - - SE 1033,7 17
14.02.2019 15:00:00 12,6 2,5 7 4 14 8 SSE 1034,2 20
14.02.2019 14:00:00 11,8 2,1 4 2 11 6 N 1034,5 19
14.02.2019 13:00:00 10,0 2,4 7 4 - - S 1035,2 19
14.02.2019 12:00:00 8,1 1,7 7 4 11 6 ESE 1036,2 19
14.02.2019 11:00:00 6,5 0,7 7 4 11 6 SSE 1035,7 19
14.02.2019 10:00:00 4,4 0,1 4 2 - - N 1035,7 12
14.02.2019 09:00:00 2,0 -0,9 7 4 11 6 E 1036,2 9
14.02.2019 08:00:00 0,6 -1,0 7 4 11 6 S 1035,5 10
14.02.2019 07:00:00 -0,5 -2,4 4 2 - - N 1035,5 8
14.02.2019 06:00:00 0,8 -1,0 4 2 7 4 N 1035,0 14
14.02.2019 05:00:00 1,1 -1,2 4 2 11 6 N 1035,2 13
14.02.2019 04:00:00 1,3 -1,5 4 2 - - N 1035,2 18
14.02.2019 03:00:00 1,8 -1,0 7 4 11 6 SSW 1035,0 16
14.02.2019 02:00:00 2,2 -0,8 4 2 11 6 N 1035,2 18
14.02.2019 01:00:00 2,6 -0,1 7 4 - - S 1035,5 18
14.02.2019 00:00:00 2,7 -0,1 11 6 14 8 SSW 1035,2 16
13.02.2019 23:00:00 2,8 0,3 7 4 14 8 S 1035,7 14
13.02.2019 22:00:00 2,7 0,7 7 4 - - S 1035,7 10
13.02.2019 21:00:00 3,2 0,9 7 4 11 6 S 1035,7 12
13.02.2019 20:00:00 3,4 0,9 7 4 11 6 S 1036,0 13
13.02.2019 19:00:00 4,1 1,1 7 4 - - S 1036,0 16
13.02.2019 18:00:00 5,3 1,6 7 4 18 10 SSW 1035,7 19
13.02.2019 17:00:00 6,6 1,7 11 6 22 12 SSW 1035,7 20
13.02.2019 16:00:00 7,0 1,9 14 8 - - SSW 1035,9 18
13.02.2019 15:00:00 7,1 1,5 18 10 25 14 SSW 1035,7 19
13.02.2019 14:00:00 6,9 1,8 14 8 25 14 SSW 1036,2 16
13.02.2019 13:00:00 6,0 1,6 14 8 - - SSW 1037,0 11
13.02.2019 12:00:00 5,4 1,7 11 6 25 14 S 1037,2 16
13.02.2019 11:00:00 3,7 1,1 14 8 22 12 SSW 1037,0 6
13.02.2019 10:00:00 3,0 0,9 11 6 - - SSW 1037,2 6
13.02.2019 09:00:00 1,8 0,3 14 8 22 12 SSW 1036,7 5
13.02.2019 08:00:00 2,9 0,5 14 8 25 14 SW 1036,7 9
13.02.2019 07:00:00 3,0 1,0 14 8 - - SSW 1036,4 8
13.02.2019 06:00:00 3,2 1,2 14 8 22 12 S 1036,4 8
13.02.2019 05:00:00 3,6 1,3 14 8 22 12 SSW 1036,2 9
13.02.2019 04:00:00 3,7 1,5 14 8 - - SSW 1036,4 9
13.02.2019 03:00:00 3,7 1,7 14 8 25 14 S 1036,5 9
13.02.2019 02:00:00 3,7 1,9 14 8 22 12 SSW 1036,7 9
13.02.2019 01:00:00 3,4 1,7 14 8 - - SSW 1036,7 8
13.02.2019 00:00:00 3,4 1,7 14 8 22 12 SSW 1036,4 7
12.02.2019 23:00:00 3,6 1,9 14 8 22 12 S 1036,2 9
12.02.2019 22:00:00 4,5 2,2 11 6 - - SSW 1036,0 14
12.02.2019 21:00:00 5,3 2,8 11 6 18 10 SSW 1036,0 16
12.02.2019 20:00:00 4,9 2,7 11 6 14 8 SSW 1035,9 12
12.02.2019 19:00:00 5,8 3,0 11 6 - - SSW 1035,5 15
12.02.2019 18:00:00 7,0 2,1 7 4 14 8 SSW 1035,4 20
12.02.2019 17:00:00 8,2 2,2 11 6 22 12 SW 1035,2 20

tt = Température de l'air
td = dewpoint
ff = Vitesse du vent
fx = gusts
dd = Direction du vent
ppp = reduced air pressure
vv = visibility

stations d'obs. à proximité